Airfield :
LOGIN :

Register | Disclaimer

   EN    FR    IT 

 










Legend :    VFR   Marginal VFR   IFR   Intensive IFR   Very Intensive IFR
Visi :
Ceiling :
>= 8 km
>= 3000ft
5 to 8 km
1000 to 3000 ft
1500m to 5 km
500 to 1000 ft
800 to 1500m
200 to 500 ft
< 800m
< 200 ft
Symbols :   Thunderstorms  Fog  Heavy snow  Heavy precipitations  Wind > 20 kt
SIGMETs :     Misc.  Thunderstorms  Icing  Turbulence  Mountain Waves  Volcanic Ashes







- Airport Elevation : 156 ft
- IATA code : OMO


LQMO - Mostar

CURRENT METAR :
  • 221200Z 21008KT 180V240 9999 FEW022 FEW040TCU BKN068 22/12 Q1013

EXPIRED METARs :
  • 221100Z VRB04KT 9999 SCT045 23/13 Q1013
  • 221000Z VRB02KT 9999 SCT045 21/12 Q1014

TAF TAF LQMO
Valid from the 22 at 12:00 until the 23 at 12:00 UTC


221100Z 2212/2312 21009KT 9999 SCT045 BKN060 TX20/2213Z TN14/2304Z
PROB30
TEMPO 2212/2218 VRB15KT 4000 TSRA SCT033 FEW035CB BKN050
PROB40
TEMPO 2218/2303 3000 -RA BR
No reported NOTAMs for that airfield.



MET'MAP, your aeronautical weather chart ! - Copyright ORBIFLY December 2007 - Disclaimer

ORBIFLY MET'MAP TEAM :

Programming & Development : Alexandra Zaïnal
Concept & Development : Baudouin d'Aumeries
Co-Development & Prog : Marc-Olivier Méhu
Technical & hardware support : Manuel Goepfert

Contact : metmap@orbifly.com




SOURCES & CREDITS :

   NOAA